Showing default

EOSSAT-1, 55053

Orbit data source: Space-Track

EOSSAT-1, 55053 is a payload satellite owned by EOS DA (ZA) in SSO that was launched on Tue, 03 Jan 2023 UTC via an FALCON 9 launch vehicle from the Air Force Eastern Test Range (AFETR). Payload-class satellites include a variety of spacecraft equipped with specific instruments for various scientific and technological missions. These include communications satellites like Starlink; space stations such as the ISS; scientific satellites like the Hubble; Earth observation satellites from companies like Planet Labs, Umbra, and HawkEye 360; GPS; miniature CubeSats for education and research; and military/defense satellites.

Loading next visibility...
Identifier
55053, 2023-001AW
Orbit
SSO
Country
Flag of UnknownUnknown / SAFR
Related business
Manufacturer
Dragonfly
Mission
Operational Commercial Imaging
Bus & Motor
EOS-SAT, AOCS
Mass
178 kg wet, 178 kg dry
Launch date (UTC)
2023-01-03 (3 years ago)
Launch vehicle
FALCON 9
Launch site
Air Force Eastern Test Range (AFETR)
Object type
Payload
Rocket body
Debris
Shape & HBR
Cyl + 2 Pan, 0.3 m
Radar Cross Section
0.295 m², Medium (>0.1 m² and < 1m²)

Expand to show TLE details & history
Last TLE update: 18 hours ago

TLE from 18 hours ago
0 EOSSAT-1
1 55053U 23001AW  25286.60712603  .00011120  00000-0  39256-3 0  9995
2 55053  97.3613 344.4857 0008281 277.2136  82.8163 15.29365925154174
Epoch: 2025-10-13T14:34Z
TLE epoch observation values (Epoch: 2025-10-13T14:34:15.688Z)
Latitude
0.00003°
Longitude
103.51284°
Altitude
480.105 km
Speed
7.626 km/s
True Right ascension
22h 57m 56s
True Declination
0° 00' 00"
Sunlit
Object was in full shadow at epoch
Visualization orbit readout
Latitude
Unknown
Longitude
Unknown
Altitude
Unknown
Speed
Unknown
Apparent Right ascension
Unknown
Apparent Declination
Unknown
Sunlit
N/A
Visualization observer readout
Local Sidereal Time
02:52:10
Azimuth
Unknown
Elevation
Unknown
Doppler factor
Unknown
Orbital elements
Apogee altitude
480.333 km
Perigee altitude
468.983 km
Semi-major axis
6,852.795 km
Eccentricity
0.00083
Inclination
97.3613°
RAAN
344.4857°
Arg. of periapsis
277.2136°
True anomaly
82.91046°
Mean anomaly
82.8163°
Eccentric anomaly
82.86338°
Mean motion
3.82597 °/min
Orbital period
94.09 mins
BSTAR
0.00039256
Loading maneuver chart data...
Computing Atmospheric mass density...
Loading historical data...
Loading historical data...
Loading historical data...
Loading historical data...
Loading historical data...
Loading historical data...
Loading historical data...

Documentation

Showing up to 5 results
|